• In Deutschland
  • Länderverzeichnis
  • Für 7 Tage
  • Wassertemperatur
  • Satellitenkarten
  • Wetterkarte
  • Widgets
  • user-avatar
    Anmelden

    Stündliche Wetter Bad Berneck im Fichtelgebirge

    Heute, 24 Oktober, Mittwoch

    Zeit Temperatur Niederschläge Wind Luftdruck Luftfeuchtigkeit
    00:00 +7°C° 0.3 mm 8 m/S 718 mmHg 84%
    01:00 +7°C° 0.3 mm 8 m/S 718 mmHg 86%
    02:00 +7°C° 0.6 mm 8 m/S 717 mmHg 86%
    03:00 +7°C° 0.6 mm 8 m/S 717 mmHg 87%
    04:00 +9°C° 0.6 mm 8 m/S 717 mmHg 88%
    05:00 +9°C° 0.8 mm 8 m/S 717 mmHg 89%
    06:00 +9°C° 0.8 mm 8 m/S 717 mmHg 89%
    07:00 +10°C° 0.8 mm 7 m/S 717 mmHg 90%
    08:00 +10°C° 1 mm 7 m/S 717 mmHg 90%
    09:00 +10°C° 1 mm 7 m/S 718 mmHg 91%
    10:00 +10°C° 1 mm 6 m/S 718 mmHg 91%
    11:00 +10°C° 0.6 mm 6 m/S 719 mmHg 91%
    12:00 +10°C° 0.6 mm 6 m/S 719 mmHg 91%
    13:00 +9°C° 0.6 mm 5 m/S 719 mmHg 91%
    14:00 +9°C° 0.2 mm 5 m/S 719 mmHg 91%
    15:00 +9°C° 0.2 mm 5 m/S 720 mmHg 90%
    16:00 +9°C° 0.2 mm 5 m/S 720 mmHg 90%
    17:00 +10°C° 0.1 mm 4 m/S 720 mmHg 91%
    18:00 +10°C° 0.1 mm 4 m/S 720 mmHg 91%
    19:00 +10°C° 0.1 mm 3 m/S 721 mmHg 92%
    20:00 +10°C° 0.1 mm 3 m/S 721 mmHg 93%
    21:00 +10°C° 0.1 mm 3 m/S 721 mmHg 93%
    22:00 +10°C° 0.1 mm 3 m/S 721 mmHg 94%
    23:00 +10°C° 0.2 mm 4 m/S 721 mmHg 94%

    Morgen, 25 Oktober, Donnerstag

    Zeit Temperatur Niederschläge Wind Luftdruck Luftfeuchtigkeit
    00:00 +10°C° 0.2 mm 4 m/S 721 mmHg 94%
    01:00 +10°C° 0.2 mm 4 m/S 721 mmHg 94%
    02:00 +10°C° 0.1 mm 4 m/S 720 mmHg 94%
    03:00 +10°C° 0.1 mm 4 m/S 720 mmHg 95%
    04:00 +10°C° 0.1 mm 4 m/S 719 mmHg 95%
    05:00 +10°C° 0.1 mm 4 m/S 719 mmHg 94%
    06:00 +10°C° 0.1 mm 4 m/S 719 mmHg 94%
    07:00 +10°C° 0.1 mm 4 m/S 719 mmHg 93%
    08:00 +9°C° 0.1 mm 5 m/S 719 mmHg 91%
    09:00 +9°C° 0.1 mm 5 m/S 719 mmHg 89%
    10:00 +9°C° 0.1 mm 5 m/S 719 mmHg 87%
    11:00 +10°C° 0.1 mm 5 m/S 719 mmHg 86%
    12:00 +10°C° 0.1 mm 5 m/S 718 mmHg 84%
    13:00 +10°C° 0.1 mm 5 m/S 718 mmHg 82%
    14:00 +11°C° 0.1 mm 4 m/S 718 mmHg 82%
    15:00 +11°C° 0.1 mm 4 m/S 718 mmHg 82%
    16:00 +10°C° 0.1 mm 4 m/S 717 mmHg 83%
    17:00 +10°C° 0 mm 3 m/S 717 mmHg 86%
    18:00 +9°C° 0 mm 3 m/S 717 mmHg 89%
    19:00 +8°C° 0 mm 3 m/S 717 mmHg 92%
    20:00 +8°C° 0 mm 3 m/S 717 mmHg 93%
    21:00 +8°C° 0 mm 2 m/S 717 mmHg 94%
    22:00 +7°C° 0 mm 2 m/S 717 mmHg 95%
    23:00 +7°C° 0 mm 2 m/S 717 mmHg 95%

    übermorgen, 26 Oktober, Freitag

    Zeit Temperatur Niederschläge Wind Luftdruck Luftfeuchtigkeit
    00:00 +7°C° 0 mm 2 m/S 717 mmHg 96%
    01:00 +6°C° 0 mm 2 m/S 716 mmHg 97%
    02:00 +6°C° 0 mm 2 m/S 716 mmHg 96%
    03:00 +6°C° 0 mm 2 m/S 715 mmHg 96%
    04:00 +6°C° 0 mm 2 m/S 715 mmHg 96%
    05:00 +6°C° 0 mm 2 m/S 715 mmHg 96%
    06:00 +6°C° 0 mm 2 m/S 714 mmHg 95%
    07:00 +6°C° 0 mm 2 m/S 714 mmHg 95%
    08:00 +7°C° 0 mm 3 m/S 714 mmHg 91%
    09:00 +6°C° 0 mm 4 m/S 713 mmHg 87%
    10:00 +7°C° 0 mm 4 m/S 713 mmHg 84%
    11:00 +7°C° 0 mm 5 m/S 713 mmHg 82%
    12:00 +7°C° 0 mm 5 m/S 712 mmHg 80%
    13:00 +8°C° 0 mm 5 m/S 712 mmHg 78%
    14:00 +7°C° 0 mm 5 m/S 711 mmHg 78%
    15:00 +7°C° 0 mm 5 m/S 711 mmHg 78%
    16:00 +7°C° 0 mm 5 m/S 711 mmHg 78%
    17:00 +6°C° 0 mm 5 m/S 711 mmHg 79%
    18:00 +6°C° 0 mm 5 m/S 711 mmHg 79%
    19:00 +6°C° 0 mm 5 m/S 711 mmHg 80%
    20:00 +5°C° 0.1 mm 5 m/S 712 mmHg 81%
    21:00 +5°C° 0.1 mm 5 m/S 712 mmHg 81%
    22:00 +5°C° 0.1 mm 4 m/S 712 mmHg 81%
    23:00 +4°C° 0 mm 4 m/S 713 mmHg 82%

    27 Oktober, Samstag

    Zeit Temperatur Niederschläge Wind Luftdruck Luftfeuchtigkeit
    00:00 +3°C° 0 mm 4 m/S 713 mmHg 84%
    01:00 +2°C° 0 mm 3 m/S 713 mmHg 85%
    02:00 +2°C° 0 mm 3 m/S 713 mmHg 86%
    03:00 +1°C° 0 mm 3 m/S 713 mmHg 88%
    04:00 +1°C° 0 mm 3 m/S 713 mmHg 89%
    05:00 +2°C° 0 mm 2 m/S 713 mmHg 90%
    06:00 +1°C° 0 mm 2 m/S 713 mmHg 91%
    07:00 +1°C° 0 mm 2 m/S 713 mmHg 92%
    08:00 +2°C° 0 mm 2 m/S 713 mmHg 87%
    09:00 +3°C° 0 mm 2 m/S 713 mmHg 83%
    10:00 +4°C° 0 mm 2 m/S 714 mmHg 78%
    11:00 +5°C° 0 mm 2 m/S 713 mmHg 73%
    12:00 +7°C° 0 mm 1 m/S 713 mmHg 68%
    13:00 +7°C° 0 mm 1 m/S 713 mmHg 63%
    14:00 +7°C° 0 mm 1 m/S 713 mmHg 64%
    15:00 +7°C° 0 mm 1 m/S 713 mmHg 65%
    16:00 +6°C° 0 mm 0 m/S 713 mmHg 66%
    17:00 +5°C° 0 mm 0 m/S 713 mmHg 70%
    18:00 +4°C° 0 mm 0 m/S 713 mmHg 73%
    19:00 +4°C° 0 mm 0 m/S 714 mmHg 76%
    20:00 +3°C° 0 mm 0 m/S 714 mmHg 77%
    21:00 +4°C° 0 mm 1 m/S 714 mmHg 79%
    22:00 +4°C° 0 mm 1 m/S 714 mmHg 80%
    23:00 +4°C° 0.1 mm 1 m/S 714 mmHg 81%

    28 Oktober, Sonntag

    Zeit Temperatur Niederschläge Wind Luftdruck Luftfeuchtigkeit
    00:00 +4°C° 0.1 mm 1 m/S 714 mmHg 82%
    01:00 +3°C° 0.1 mm 2 m/S 713 mmHg 82%
    02:00 +3°C° 0.2 mm 2 m/S 713 mmHg 83%
    03:00 +3°C° 0.2 mm 2 m/S 713 mmHg 84%
    04:00 +2°C° 0.2 mm 3 m/S 713 mmHg 84%
    05:00 +2°C° 0.2 mm 3 m/S 713 mmHg 84%
    06:00 +2°C° 0.2 mm 3 m/S 713 mmHg 84%
    07:00 +1°C° 0.2 mm 4 m/S 713 mmHg 84%
    08:00 +1°C° 0.5 mm 4 m/S 713 mmHg 83%
    09:00 +1°C° 0.5 mm 5 m/S 713 mmHg 82%
    10:00 +2°C° 0.5 mm 5 m/S 713 mmHg 82%
    11:00 +2°C° 0.7 mm 6 m/S 712 mmHg 81%
    12:00 +2°C° 0.7 mm 6 m/S 712 mmHg 80%
    13:00 +2°C° 0.7 mm 7 m/S 711 mmHg 80%
    14:00 +2°C° 0.4 mm 7 m/S 711 mmHg 81%
    15:00 0°C° 0.4 mm 7 m/S 711 mmHg 82%
    16:00 0°C° 0.4 mm 7 m/S 710 mmHg 83%
    17:00 0°C° 0.4 mm 7 m/S 710 mmHg 84%
    18:00 0°C° 0.4 mm 8 m/S 710 mmHg 85%
    19:00 -1°C° 0.4 mm 8 m/S 709 mmHg 86%
    20:00 -1°C° 0.5 mm 7 m/S 709 mmHg 87%
    21:00 -1°C° 0.5 mm 7 m/S 709 mmHg 88%
    22:00 -1°C° 0.5 mm 7 m/S 709 mmHg 89%
    23:00 -1°C° 0.9 mm 7 m/S 709 mmHg 89%

    29 Oktober, Montag

    Zeit Temperatur Niederschläge Wind Luftdruck Luftfeuchtigkeit
    00:00 -1°C° 0.9 mm 7 m/S 708 mmHg 90%
    01:00 -1°C° 0.9 mm 7 m/S 708 mmHg 91%
    02:00 -1°C° 1.4 mm 7 m/S 707 mmHg 91%
    03:00 -1°C° 1.4 mm 6 m/S 707 mmHg 92%
    04:00 -1°C° 1.4 mm 6 m/S 707 mmHg 92%
    05:00 -1°C° 0.4 mm 6 m/S 706 mmHg 92%
    06:00 -1°C° 0.4 mm 6 m/S 706 mmHg 92%
    07:00 0°C° 0.4 mm 5 m/S 706 mmHg 93%
    08:00 0°C° 0.2 mm 5 m/S 706 mmHg 93%
    09:00 0°C° 0.2 mm 5 m/S 706 mmHg 93%
    10:00 +1°C° 0.2 mm 5 m/S 706 mmHg 93%
    11:00 +1°C° 0.1 mm 4 m/S 705 mmHg 93%
    12:00 +1°C° 0.1 mm 4 m/S 705 mmHg 94%
    13:00 +3°C° 0.1 mm 4 m/S 704 mmHg 94%
    14:00 +3°C° 0.1 mm 4 m/S 704 mmHg 94%
    15:00 +3°C° 0.1 mm 4 m/S 704 mmHg 95%
    16:00 +3°C° 0.1 mm 3 m/S 704 mmHg 95%
    17:00 +3°C° 0.1 mm 3 m/S 704 mmHg 96%
    18:00 +3°C° 0.1 mm 3 m/S 704 mmHg 96%
    19:00 +3°C° 0.1 mm 3 m/S 704 mmHg 96%
    20:00 +4°C° 0.2 mm 2 m/S 704 mmHg 97%
    21:00 +4°C° 0.2 mm 2 m/S 704 mmHg 97%
    22:00 +5°C° 0.2 mm 1 m/S 704 mmHg 97%
    23:00 +5°C° 0.1 mm 1 m/S 704 mmHg 98%

    30 Oktober, Dienstag

    Zeit Temperatur Niederschläge Wind Luftdruck Luftfeuchtigkeit
    00:00 +5°C° 0.1 mm 1 m/S 704 mmHg 98%
    01:00 +5°C° 0.1 mm 1 m/S 704 mmHg 98%
    02:00 +4°C° 0.1 mm 2 m/S 704 mmHg 97%
    03:00 +3°C° 0.1 mm 2 m/S 703 mmHg 97%
    04:00 +2°C° 0.1 mm 3 m/S 703 mmHg 96%
    05:00 +2°C° 0.1 mm 3 m/S 704 mmHg 95%
    06:00 0°C° 0.1 mm 4 m/S 704 mmHg 94%
    07:00 0°C° 0.1 mm 4 m/S 704 mmHg 94%
    08:00 0°C° 0.1 mm 4 m/S 705 mmHg 92%
    09:00 0°C° 0.1 mm 4 m/S 706 mmHg 91%
    10:00 +1°C° 0.1 mm 5 m/S 706 mmHg 89%
    11:00 +1°C° 0 mm 5 m/S 706 mmHg 88%
    12:00 +1°C° 0 mm 4 m/S 707 mmHg 88%
    13:00 +1°C° 0 mm 4 m/S 707 mmHg 87%
    14:00 +1°C° 0 mm 4 m/S 707 mmHg 87%
    15:00 +1°C° 0 mm 4 m/S 708 mmHg 87%
    16:00 +2°C° 0 mm 3 m/S 708 mmHg 87%
    17:00 +1°C° 0 mm 3 m/S 709 mmHg 89%
    18:00 +1°C° 0 mm 3 m/S 709 mmHg 90%
    19:00 0°C° 0 mm 3 m/S 710 mmHg 92%
    20:00 0°C° 0 mm 3 m/S 710 mmHg 92%
    21:00 -1°C° 0 mm 2 m/S 710 mmHg 93%
    22:00 -1°C° 0 mm 2 m/S 710 mmHg 93%
    23:00 -1°C° 0 mm 2 m/S 711 mmHg 94%
    Mehr zeigen